Location: Foligno
(42.9600°N, 12.7050°E)
Time: 15:23:24
(UTC+02:00)

ISS - Pass Details

Date: 23 May 2018
Orbit: 402 x 407 km, 51.6° (Epoch: 27 May)

Event Time Altitude Azimuth Distance (km) Brightness Sun altitude
Rises 22:06:15 0° 252° (WSW) 2,313 0.4 -14.1°
Reaches altitude 10° 22:08:23 10° 259° (W) 1,455 -0.6 -14.4°
Maximum altitude 22:11:32 44° 333° (NNW) 568 -2.6 -14.8°
Drops below altitude 10° 22:14:41 10° 48° (NE) 1,459 -1.0 -15.1°
Sets 22:16:50 0° 55° (NE) 2,320 0.0 -15.4°
